This is the latest recevied weather packets stored in our database for station/object KB9PMA-1. If no packets are shown the sender has not sent any weather packets the latest 10 day(s).
| Time | Temp. | Humidity | Pressure | Rain* | Wind** | Luminosity | Snow |
|---|---|---|---|---|---|---|---|
| 1777565290 | 12.22° C | 59% | 1018.5 hPa | 0 mm | - | - | - |
| 1777564990 | 12.22° C | 59% | 1018.6 hPa | 0 mm | - | - | - |
| 1777564690 | 12.22° C | 65% | 1018.4 hPa | 0 mm | - | - | - |
| 1777564390 | 12.22° C | 64% | 1018.6 hPa | 0 mm | - | - | - |
| 1777564090 | 11.67° C | 63% | 1018.6 hPa | 0 mm | - | - | - |
| 1777563790 | 11.67° C | 65% | 1018.6 hPa | 0 mm | - | - | - |
| 1777563491 | 11.11° C | 70% | 1018.6 hPa | 0 mm | - | - | - |
| 1777563191 | 11.11° C | 65% | 1018.5 hPa | 0 mm | - | - | - |
| 1777562890 | 11.11° C | 68% | 1018.4 hPa | 0 mm | - | - | - |
| 1777562590 | 11.11° C | 67% | 1018.4 hPa | 0 mm | - | - | - |
| 1777562290 | 11.11° C | 67% | 1018.3 hPa | 0 mm | - | - | - |
| 1777561990 | 11.11° C | 71% | 1018.4 hPa | 0 mm | - | - | - |
| 1777561690 | 11.11° C | 68% | 1018.4 hPa | 0 mm | - | - | - |
| 1777561390 | 10.56° C | 74% | 1018.3 hPa | 0 mm | - | - | - |
| 1777561090 | 10.56° C | 73% | 1018.3 hPa | 0 mm | - | - | - |
| 1777560791 | 10° C | 74% | 1018.2 hPa | 0 mm | - | - | - |
| 1777560490 | 10° C | 74% | 1018.3 hPa | 0 mm | - | - | - |
| 1777560191 | 10° C | 74% | 1018.3 hPa | 0 mm | - | - | - |
| 1777559891 | 10° C | 74% | 1018.3 hPa | 0 mm | - | - | - |
| 1777559590 | 9.44° C | 74% | 1018.2 hPa | 0 mm | - | - | - |
| 1777559291 | 9.44° C | 75% | 1018.3 hPa | 0 mm | - | - | - |
| 1777558991 | 10° C | 74% | 1018.3 hPa | 0 mm | - | - | - |
| 1777558691 | 9.44° C | 70% | 1018.3 hPa | 0 mm | - | - | - |
| 1777558391 | 9.44° C | 74% | 1018.3 hPa | 0 mm | - | - | - |
| 1777558091 | 9.44° C | 76% | 1018.4 hPa | 0 mm | - | - | - |
* Rain latest hour (hover to see other rain measurements)
** Current wind speed in m/s (hover to see current wind gust speed)